Location: Marcé
(47.5801°N, 0.3280°W)
Time: 17:25:23
(UTC+01:00)

Vanguard 2 Rocket - Pass Details

Date: 12 December 2021
Orbit: 553 x 3325 km, 32.9° (Epoch: 23 January)

Event Time Altitude Azimuth Distance (km) Brightness Sun altitude
Rises 21:46:26 0° 250° (WSW) 3,683 10.6 -45.3°
Reaches altitude 10° 21:50:37 10° 222° (SW) 3,203 9.8 -46.0°
Enters shadow 21:51:00 11° 219° (SW) 3,196 9.8 -46.1°
Maximum altitude 21:53:55 13° 197° (SSW) 3,355 - -46.6°
Drops below altitude 10° 21:57:53 10° 174° (S) 4,028 - -47.2°
Sets 22:04:53 0° 152° (SSE) 5,760 - -48.3°
